Altoona, PA

5:58 AM EDT on August 18, 2017 (GMT -0400)
Altoona-Blair County

Weather History for KAOO - December, 2013

Change the Weather History Date:

Friday, December 27, 2013

  Actual Average Record
Temperature  
Mean Temperature 32 °F 28 °F  
Max Temperature 41 °F 35 °F 71 °F (2015)
Min Temperature 22 °F 21 °F -3 °F (1950)
Degree Days  
Heating Degree Days 33 37  
Month to date heating degree days 826 915  
Since 1 July heating degree days 2136 2225  
Cooling Degree Days 0 0  
Month to date cooling degree days 0 0  
Year to date cooling degree days 695 522  
Moisture  
Dew Point 18 °F    
Average Humidity 54    
Maximum Humidity 74    
Minimum Humidity 33    
Precipitation  
Precipitation 0.00 in 0.07 in 0.50 in (1990)
Month to date precipitation 1.84 2.17  
Year to date precipitation 29.13 32.38  
Sea Level Pressure  
Sea Level Pressure 30.33 in    
Wind  
Wind Speed 10 mph (SW)    
Max Wind Speed 21 mph    
Max Gust Speed 26 mph    
Visibility 10 miles    
Events      
T = Trace of Precipitation, MM = Missing Value Source: NWS Daily Summary

Daily Weather History Graph

Daily Weather History Graph

Search for Another Location

Airport or City:

Trip Planner

Search our weather history database for the weather conditions in past years. The results will help you decide how hot, cold, wet, or windy it might be!

Date:

Astronomy

Dec. 27, 2013 Rise Set
Actual Time 7:35 AM EST 4:54 PM EST
Civil Twilight 7:04 AM EST 5:24 PM EST
Nautical Twilight 6:30 AM EST 5:59 PM EST
Astronomical Twilight 5:57 AM EST 6:32 PM EST
Moon 2:04 AM EST (12/27) 1:03 PM EST (12/27)
Length of Visible Light 10h 20m
Length of Day
9h 19m
Waning Crescent, 28% of the Moon is Illuminated
Dec 27
Waning Crescent
Jan 1
New
Jan 7
First Quarter
Jan 15
Full
Jan 24
Last Quarter

Hourly Weather History & Observations

Time (EST) Temp. Windchill Dew Point Humidity Pressure Visibility Wind Dir Wind Speed Gust Speed Precip Events Conditions
12:53 AM 25.0 °F 18.1 °F 14.0 °F 63% 30.35 in 10.0 mi West 5.8 mph - N/A   Clear
1:53 AM 25.0 °F 18.1 °F 14.0 °F 63% 30.36 in 10.0 mi SW 5.8 mph - N/A   Clear
2:53 AM 25.0 °F 18.1 °F 14.0 °F 63% 30.37 in 10.0 mi WSW 5.8 mph - N/A   Partly Cloudy
3:53 AM 25.0 °F 16.3 °F 15.1 °F 66% 30.36 in 10.0 mi SW 8.1 mph - N/A   Partly Cloudy
4:53 AM 23.0 °F 14.7 °F 15.1 °F 72% 30.35 in 10.0 mi SW 6.9 mph - N/A   Clear
5:53 AM 24.1 °F 18.2 °F 16.0 °F 71% 30.34 in 10.0 mi SW 4.6 mph - N/A   Clear
6:53 AM 23.0 °F 14.7 °F 16.0 °F 74% 30.35 in 10.0 mi SW 6.9 mph - N/A   Clear
7:53 AM 24.1 °F 15.2 °F 17.1 °F 75% 30.35 in 10.0 mi SW 8.1 mph - N/A   Clear
8:53 AM 30.9 °F 20.7 °F 19.9 °F 64% 30.33 in 10.0 mi SSW 13.8 mph - N/A   Clear
9:53 AM 36.0 °F 25.6 °F 18.0 °F 48% 30.34 in 10.0 mi SSW 18.4 mph 24.2 mph N/A   Clear
10:53 AM 39.9 °F 31.4 °F 14.0 °F 35% 30.34 in 10.0 mi SSW 16.1 mph - N/A   Overcast
11:53 AM 39.9 °F 31.8 °F 12.9 °F 33% 30.34 in 10.0 mi West 15.0 mph - N/A   Overcast
12:53 PM 39.9 °F 31.4 °F 19.0 °F 43% 30.31 in 10.0 mi WNW 16.1 mph 25.3 mph N/A   Overcast
1:53 PM 39.0 °F 31.0 °F 21.0 °F 49% 30.31 in 10.0 mi West 13.8 mph - N/A   Overcast
2:53 PM 41.0 °F 34.7 °F 23.0 °F 49% 30.30 in 10.0 mi West 10.4 mph - N/A   Overcast
3:53 PM 39.9 °F 32.9 °F 24.1 °F 53% 30.31 in 10.0 mi West 11.5 mph - N/A   Clear
4:53 PM 36.0 °F 30.3 °F 23.0 °F 59% 30.32 in 10.0 mi WSW 6.9 mph - N/A   Clear
5:53 PM 34.0 °F 27.2 °F 21.9 °F 61% 30.33 in 10.0 mi SW 8.1 mph - N/A   Clear
6:53 PM 32.0 °F 24.2 °F 21.9 °F 66% 30.35 in 10.0 mi SW 9.2 mph - N/A   Clear
7:53 PM 33.1 °F 25.5 °F 21.9 °F 64% 30.33 in 10.0 mi SSW 9.2 mph - N/A   Clear
8:53 PM 30.9 °F 22.2 °F 21.0 °F 67% 30.33 in 10.0 mi SSW 10.4 mph - N/A   Clear
9:53 PM 36.0 °F 28.5 °F 19.0 °F 50% 30.30 in 10.0 mi SW 10.4 mph - N/A   Clear
10:53 PM 33.1 °F 27.7 °F 19.9 °F 59% 30.28 in 10.0 mi SSW 5.8 mph - N/A   Clear
11:53 PM 32.0 °F 26.4 °F 21.0 °F 64% 30.29 in 10.0 mi South 5.8 mph - N/A   Clear